Location: Fluertsh�userhof
(48.7537°N, 10.3850°E)
Time: 09:08:35
(UTC+00:00)

OBJECT-B - Pass Details

Date: 18 September 2020
Orbit: 421 x 433 km, 97.0° (Epoch: 09 October)

Event Time Altitude Azimuth Distance (km) Brightness Sun altitude
Exits shadow 20:34:37 12° 274° (W) 1,410 4.0 -29.4°
Drops below altitude 10° 20:35:43 10° 294° (WNW) 1,518 4.4 -29.5°
Sets 20:38:51 0° 328° (NNW) 2,393 5.7 -29.9°
